Weather History for Springfield, VT

Change the Weather History Date:

Wednesday, February 22, 2012

  Actual Average Record
Temperature  
Mean Temperature 41 °F 25 °F  
Max Temperature 51 °F 35 °F 57 °F (1997)
Min Temperature 30 °F 15 °F 0 °F (1999)
Degree Days  
Heating Degree Days 24 40  
Month to date heating degree days 768 939  
Since 1 July heating degree days 4273 5211  
Moisture  
Dew Point 28 °F    
Average Humidity 65    
Maximum Humidity 100    
Minimum Humidity 29    
Precipitation  
Precipitation T in 0.10 in 0.54 in (2009)
Month to date precipitation 0.08 2.16  
Year to date precipitation 3.19 5.08  
Sea Level Pressure  
Sea Level Pressure 29.66 in    
Wind  
Wind Speed 4 mph (WSW)    
Max Wind Speed 16 mph    
Max Gust Speed 25 mph    
Visibility 4 miles    
Events Fog    
T = Trace of Precipitation, MM = Missing Value Source: NWS Daily Summary

Daily Weather History Graph

Daily Weather History Graph

Search for Another Location

Airport:

Trip Planner

Search our weather history database for the weather conditions in past years. The results will help you decide how hot, cold, wet, or windy it might be!

Date:

Astronomy

Feb. 22, 2012 Rise Set
Actual Time 6:38 AM EST 5:29 PM EST
Civil Twilight 6:09 AM EST 5:58 PM EST
Nautical Twilight 5:36 AM EST 6:31 PM EST
Astronomical Twilight 5:03 AM EST 7:04 PM EST
Moon 6:32 AM EST (2/22) 6:37 PM EST (2/22)
Length of Visible Light 11h 48m
Length of Day
10h 50m
New Moon, 1% of the Moon is Illuminated
Feb 22
New Moon
Feb 29
First Quarter
Mar 8
Full
Mar 14
Last Quarter
Mar 22
New

Hourly Weather History & Observations

Time (EST) Temp. Windchill Dew Point Humidity Pressure Visibility Wind Dir Wind Speed Gust Speed Precip Events Conditions
12:54 AM 34.0 °F - 30.9 °F 89% 29.80 in 9.0 mi Calm Calm - N/A   Overcast
1:54 AM 33.1 °F - 30.9 °F 92% 29.77 in 2.5 mi Calm Calm - N/A   Overcast
2:06 AM 33.8 °F - 30.2 °F 87% 29.74 in 4.0 mi Calm Calm - N/A   Mostly Cloudy
2:12 AM 33.8 °F - 30.2 °F 87% 29.74 in 4.0 mi Calm Calm - N/A   Mostly Cloudy
2:23 AM 30.2 °F - 30.2 °F 100% 29.73 in 1.2 mi Calm Calm - N/A   Mostly Cloudy
2:26 AM 30.2 °F - 28.4 °F 93% 29.73 in 0.8 mi Calm Calm - N/A   Mostly Cloudy
2:34 AM 30.2 °F - 28.4 °F 93% 29.72 in 1.0 mi Calm Calm - N/A   Mostly Cloudy
2:48 AM 30.2 °F - 28.4 °F 93% 29.72 in 2.0 mi Calm Calm - N/A   Scattered Clouds
2:52 AM 30.2 °F - 28.4 °F 93% 29.72 in 1.0 mi Calm Calm - N/A   Mist
2:54 AM 30.0 °F - 28.0 °F 92% 29.75 in 0.8 mi Calm Calm - N/A   Mist
3:03 AM 30.2 °F - 28.4 °F 93% 29.71 in 1.0 mi Calm Calm - N/A   Mist
3:17 AM 30.2 °F - 28.4 °F 93% 29.71 in 1.0 mi Calm Calm - N/A   Mostly Cloudy
3:24 AM 30.2 °F - 28.4 °F 93% 29.71 in 3.0 mi Calm Calm - N/A   Mostly Cloudy
3:54 AM 30.9 °F - 28.9 °F 92% 29.72 in 6.0 mi Calm Calm - N/A   Overcast
4:02 AM 30.2 °F - 28.4 °F 93% 29.70 in 2.5 mi Calm Calm - N/A   Overcast
4:11 AM 30.2 °F - 28.4 °F 93% 29.69 in 2.5 mi Calm Calm - N/A   Overcast
4:19 AM 30.2 °F - 28.4 °F 93% 29.69 in 3.0 mi Calm Calm - N/A   Overcast
4:54 AM 30.0 °F - 28.0 °F 92% 29.70 in 4.0 mi Calm Calm - N/A   Overcast
5:34 AM 30.2 °F - 28.4 °F 93% 29.67 in 4.0 mi Calm Calm - N/A   Overcast
5:54 AM 30.9 °F - 28.9 °F 92% 29.69 in 2.5 mi Calm Calm - N/A   Overcast
5:59 AM 30.2 °F - 28.4 °F 93% 29.67 in 0.8 mi Calm Calm - N/A   Mist
6:13 AM 30.2 °F - 28.4 °F 93% 29.67 in 0.2 mi Calm Calm - N/A Fog Light Freezing Fog
6:54 AM 30.9 °F - 30.0 °F 96% 29.69 in 0.2 mi Calm Calm - 0.00 in Fog Light Freezing Fog
7:54 AM 32.0 °F - 30.0 °F 92% 29.68 in 0.2 mi Calm Calm - 0.00 in Fog Fog
8:03 AM 32.0 °F - 30.2 °F 93% 29.66 in 0.2 mi Calm Calm - 0.00 in Fog Fog
8:12 AM 32.0 °F - 30.2 °F 93% 29.66 in 0.2 mi Calm Calm - 0.00 in Fog Fog
8:19 AM 32.0 °F - 30.2 °F 93% 29.65 in 0.2 mi Calm Calm - 0.00 in Fog Fog
8:33 AM 32.0 °F - 30.2 °F 93% 29.65 in 0.2 mi Calm Calm - 0.00 in Fog Fog
8:49 AM 33.8 °F - 30.2 °F 87% 29.65 in 2.0 mi Calm Calm - 0.00 in   Overcast
8:50 AM 33.1 °F - 30.0 °F 89% 29.68 in 2.0 mi Calm Calm - 0.00 in   Overcast
9:13 AM 35.6 °F - 30.2 °F 81% 29.65 in 3.0 mi Calm Calm - N/A   Overcast
9:51 AM 37.4 °F - 33.8 °F 87% 29.64 in 4.0 mi Calm Calm - N/A   Mostly Cloudy
9:54 AM 37.0 °F - 33.1 °F 86% 29.66 in 4.0 mi Calm Calm - N/A   Mostly Cloudy
10:54 AM 46.0 °F 41.0 °F 30.0 °F 54% 29.65 in 10.0 mi West 10.4 mph 17.3 mph N/A   Partly Cloudy
1:54 PM 48.9 °F - 23.0 °F 36% 29.56 in 10.0 mi WNW 6.9 mph - N/A   Partly Cloudy
2:54 PM 50.0 °F - 19.9 °F 31% 29.56 in 10.0 mi WSW 11.5 mph 18.4 mph N/A   Clear
3:54 PM 50.0 °F - 19.0 °F 29% 29.53 in 10.0 mi SW 5.8 mph - N/A   Clear
4:54 PM 48.0 °F - 19.0 °F 32% 29.52 in 10.0 mi SSW 4.6 mph - N/A   Clear
5:54 PM 45.0 °F 43.5 °F 19.9 °F 37% 29.53 in 10.0 mi WSW 3.5 mph - N/A   Mostly Cloudy
6:54 PM 45.0 °F 39.7 °F 24.1 °F 44% 29.55 in 10.0 mi West 10.4 mph 17.3 mph N/A   Overcast
7:54 PM 46.0 °F 42.5 °F 26.1 °F 46% 29.55 in 10.0 mi Variable 6.9 mph - N/A   Overcast
8:54 PM 37.9 °F - 26.1 °F 62% 29.55 in 10.0 mi Calm Calm - N/A   Mostly Cloudy
9:54 PM 36.0 °F - 27.0 °F 70% 29.54 in 10.0 mi Calm Calm - N/A   Overcast
10:54 PM 34.0 °F - 27.0 °F 75% 29.49 in 9.0 mi Calm Calm - N/A   Scattered Clouds
11:54 PM 33.1 °F - 27.0 °F 78% 29.48 in 10.0 mi Calm Calm - N/A   Clear